Weather History for Minot, ND

Change the Weather History Date:

Wednesday, January 16, 2013

  Actual Average Record
Temperature  
Mean Temperature 23 °F 12 °F  
Max Temperature 37 °F 21 °F 50 °F (1942)
Min Temperature 8 °F 3 °F -33 °F (1954)
Degree Days  
Heating Degree Days 42 53  
Month to date heating degree days 771 848  
Since 1 July heating degree days 4516 4443  
Moisture  
Dew Point 20 °F    
Average Humidity 87    
Maximum Humidity 96    
Minimum Humidity 77    
Precipitation  
Precipitation 0.04 in 0.01 in 0.34 in (1967)
Month to date precipitation 0.04 0.28  
Year to date precipitation 0.04 0.28  
Sea Level Pressure  
Sea Level Pressure 29.89 in    
Wind  
Wind Speed 8 mph (NNW)    
Max Wind Speed 20 mph    
Max Gust Speed 23 mph    
Visibility 6 miles    
Events Snow    
T = Trace of Precipitation, MM = Missing Value Source: NWS Daily Summary

Daily Weather History Graph

Daily Weather History Graph

Search for Another Location

Airport:

Trip Planner

Search our weather history database for the weather conditions in past years. The results will help you decide how hot, cold, wet, or windy it might be!

Date:

Astronomy

Jan. 16, 2013 Rise Set
Actual Time 8:30 AM CST 5:20 PM CST
Civil Twilight 7:54 AM CST 5:55 PM CST
Nautical Twilight 7:16 AM CST 6:34 PM CST
Astronomical Twilight 6:38 AM CST 7:11 PM CST
Moon 10:37 AM CST (1/16) 11:46 PM CST (1/16)
Length of Visible Light 10h 00m
Length of Day
8h 50m
Waxing Crescent, 28% of the Moon is Illuminated
Jan 16
Waxing Crescent
Jan 18
First Quarter
Jan 26
Full
Feb 3
Last Quarter
Feb 10
New

Hourly Weather History & Observations

Time (CST) Temp. Windchill Dew Point Humidity Pressure Visibility Wind Dir Wind Speed Gust Speed Precip Events Conditions
12:05 AM 35.6 °F 27.1 °F 32.0 °F 87% 29.62 in 10.0 mi West 12.7 mph - 0.00 in   Overcast
12:47 AM 35.6 °F 25.5 °F 32.0 °F 87% 29.61 in 10.0 mi West 17.3 mph - 0.00 in   Overcast
12:54 AM 36.0 °F 26.0 °F 32.0 °F 86% 29.68 in 10.0 mi West 17.3 mph - 0.00 in   Overcast
1:33 AM 35.6 °F 25.9 °F 32.0 °F 87% 29.63 in 10.0 mi West 16.1 mph - N/A   Overcast
1:54 AM 36.0 °F 27.1 °F 32.0 °F 86% 29.70 in 10.0 mi West 13.8 mph - N/A   Overcast
2:54 AM 36.0 °F 27.5 °F 32.0 °F 86% 29.71 in 10.0 mi West 12.7 mph - N/A   Overcast
3:54 AM 35.1 °F 26.4 °F 32.0 °F 89% 29.71 in 8.0 mi West 12.7 mph - 0.00 in   Overcast
4:06 AM 35.6 °F 27.5 °F 32.0 °F 87% 29.65 in 6.0 mi West 11.5 mph - 0.00 in   Overcast
4:47 AM 33.8 °F 25.8 °F 32.0 °F 93% 29.65 in 5.0 mi West 10.4 mph - 0.02 in Snow Light Snow
4:54 AM 34.0 °F 24.6 °F 32.0 °F 92% 29.71 in 5.0 mi West 13.8 mph - 0.02 in Snow Light Snow
5:10 AM 33.8 °F 24.8 °F 32.0 °F 93% 29.65 in 4.0 mi West 12.7 mph - 0.01 in Snow Light Snow
5:20 AM 30.2 °F 20.2 °F 28.4 °F 93% 29.66 in 2.0 mi North 12.7 mph - 0.01 in Snow Light Snow
5:23 AM 30.2 °F 19.3 °F 28.4 °F 93% 29.66 in 1.5 mi North 15.0 mph - 0.01 in Snow Light Snow
5:31 AM 30.2 °F 20.8 °F 28.4 °F 93% 29.66 in 1.0 mi North 11.5 mph - 0.01 in Snow Light Snow
5:54 AM 28.4 °F 17.5 °F 26.6 °F 93% 29.66 in 1.8 mi North 13.8 mph - N/A Snow Light Snow
6:03 AM 28.4 °F 18.0 °F 26.6 °F 93% 29.67 in 1.5 mi North 12.7 mph - 0.00 in Snow Light Snow
6:18 AM 28.4 °F 18.5 °F 26.6 °F 93% 29.68 in 1.5 mi North 11.5 mph - 0.00 in Snow Light Snow
6:54 AM 26.1 °F 16.2 °F 24.1 °F 92% 29.76 in 1.0 mi NNE 10.4 mph - 0.00 in Snow Light Snow
7:12 AM 24.8 °F 14.0 °F 23.0 °F 93% 29.71 in 1.2 mi North 11.5 mph - 0.00 in Snow Light Snow
7:19 AM 24.8 °F 13.4 °F 21.2 °F 86% 29.72 in 2.0 mi North 12.7 mph - 0.00 in Snow Light Snow
7:27 AM 24.8 °F 14.0 °F 23.0 °F 93% 29.73 in 4.0 mi North 11.5 mph - 0.00 in Snow Light Snow
7:34 AM 24.8 °F 14.0 °F 23.0 °F 93% 29.73 in 5.0 mi NNE 11.5 mph - 0.00 in   Overcast
7:54 AM 24.1 °F 12.0 °F 21.0 °F 88% 29.82 in 9.0 mi North 13.8 mph - 0.00 in   Overcast
8:27 AM 23.0 °F 12.4 °F 21.2 °F 93% 29.79 in 2.0 mi North 10.4 mph - 0.00 in Snow Light Snow
8:54 AM 23.0 °F 13.1 °F 21.0 °F 92% 29.88 in 2.0 mi North 9.2 mph - 0.00 in Snow Light Snow
9:09 AM 21.2 °F 9.5 °F 19.4 °F 93% 29.83 in 4.0 mi North 11.5 mph - 0.00 in Snow Light Snow
9:19 AM 21.2 °F 8.9 °F 19.4 °F 93% 29.84 in 2.5 mi North 12.7 mph - 0.00 in Snow Light Snow
9:42 AM 21.2 °F 8.3 °F 17.6 °F 86% 29.87 in 4.0 mi North 13.8 mph - 0.00 in Snow Light Snow
9:54 AM 21.0 °F 9.3 °F 18.0 °F 88% 29.96 in 4.0 mi NNW 11.5 mph - 0.00 in Snow Light Snow
10:54 AM 19.9 °F 11.1 °F 17.1 °F 89% 30.00 in 3.0 mi NNW 6.9 mph - 0.00 in Snow Light Snow
11:01 AM 19.4 °F 8.6 °F 15.8 °F 86% 29.94 in 1.8 mi North 9.2 mph - 0.00 in Snow Light Snow
11:13 AM 19.4 °F 9.5 °F 15.8 °F 86% 29.95 in 3.0 mi North 8.1 mph - 0.00 in Snow Light Snow
11:21 AM 19.4 °F 9.5 °F 15.8 °F 86% 29.95 in 2.5 mi North 8.1 mph - 0.00 in Snow Light Snow
11:39 AM 19.4 °F 9.5 °F 15.8 °F 86% 29.95 in 5.0 mi NNW 8.1 mph - 0.00 in Snow Light Snow
11:54 AM 19.9 °F 8.6 °F 16.0 °F 85% 30.03 in 5.0 mi North 10.4 mph - 0.00 in   Mostly Cloudy
12:30 PM 19.4 °F 9.5 °F 15.8 °F 86% 29.99 in 10.0 mi NNW 8.1 mph - N/A   Mostly Cloudy
12:47 PM 19.4 °F 9.5 °F 14.0 °F 80% 29.99 in 10.0 mi NW 8.1 mph - N/A   Scattered Clouds
12:54 PM 19.9 °F 9.3 °F 14.0 °F 78% 30.07 in 10.0 mi NNW 9.2 mph - N/A   Partly Cloudy
1:20 PM 19.4 °F 7.9 °F 14.0 °F 80% 30.01 in 10.0 mi North 10.4 mph - N/A   Mostly Cloudy
1:54 PM 17.6 °F 5.0 °F 12.2 °F 79% 30.02 in 7.0 mi NNE 11.5 mph - N/A   Overcast
2:54 PM 15.1 °F 5.2 °F 10.9 °F 84% 30.12 in 10.0 mi East 6.9 mph - N/A   Overcast
3:54 PM 12.9 °F 5.2 °F 9.0 °F 84% 30.17 in 8.0 mi ESE 4.6 mph - 0.00 in   Overcast
4:54 PM 12.2 °F 2.9 °F 8.6 °F 85% 30.10 in 10.0 mi SE 5.8 mph - N/A   Overcast
5:54 PM 10.9 °F 2.9 °F 7.0 °F 84% 30.19 in 10.0 mi ESE 4.6 mph - N/A   Mostly Cloudy
6:08 PM 10.4 °F - 6.8 °F 85% 30.11 in 10.0 mi Calm Calm - N/A   Scattered Clouds
6:22 PM 10.4 °F 2.2 °F 6.8 °F 85% 30.11 in 10.0 mi SE 4.6 mph - N/A   Mostly Cloudy
6:37 PM 10.4 °F - 6.8 °F 85% 30.11 in 10.0 mi Calm Calm - N/A   Scattered Clouds
6:54 PM 10.0 °F 3.6 °F 8.1 °F 92% 30.21 in 10.0 mi ESE 3.5 mph - N/A   Clear
7:54 PM 10.0 °F - 7.0 °F 87% 30.22 in 10.0 mi Calm Calm - N/A   Mostly Cloudy
8:54 PM 14.0 °F 6.5 °F 10.0 °F 84% 30.22 in 10.0 mi WSW 4.6 mph - N/A   Overcast
9:13 PM 15.8 °F 10.2 °F 12.2 °F 86% 30.12 in 10.0 mi WNW 3.5 mph - N/A   Overcast
9:54 PM 16.0 °F - 12.9 °F 88% 30.24 in 10.0 mi Calm Calm - N/A   Overcast
10:54 PM 16.0 °F 10.4 °F 12.9 °F 88% 30.23 in 10.0 mi SSE 3.5 mph - N/A   Overcast
11:54 PM 19.0 °F 8.2 °F 15.1 °F 85% 30.21 in 10.0 mi SW 9.2 mph - N/A   Overcast